OZ1IEP-5 Weather Reports


time (UTC)temp
C
wind
direction
speed
KPH
gust
KPH
rain 1hr
cm
rain 24hr
cm
rain mn
cm
humidity
%
barometer
mb
20260901134005 20 283 0.0 4.8 0.00 0.30 0.05 77 1010.9
20260901133008 20 285 0.0 4.8 0.00 0.30 0.05 77 1010.9
20260901132006 20 313 0.0 4.8 0.00 0.30 0.05 79 1010.9
20260901131006 20 267 0.0 3.2 0.00 0.30 0.05 80 1010.9
20260901130008 20 292 0.0 1.6 0.00 0.30 0.05 79 1010.9
20260901125005 20 294 0.0 4.8 0.00 0.30 0.05 81 1010.9
20260901124006 19 230 0.0 0.0 0.00 0.30 0.05 82 1010.8
20260901123008 19 282 0.0 8.0 0.00 0.30 0.05 82 1010.7
20260901122006 19 308 1.6 9.7 0.00 0.30 0.05 82 1010.7
20260901121006 19 302 1.6 11.3 0.00 0.30 0.05 82 1010.8
20260901120009 19 295 1.6 9.7 0.00 0.30 0.05 83 1010.9
20260901115006 19 302 0.0 8.0 0.00 0.30 0.05 84 1010.9
20260901114005 19 275 0.0 8.0 0.00 0.30 0.05 84 1010.9
20260901113008 19 308 1.6 8.0 0.00 0.30 0.05 84 1010.8
20260901112005 18 301 0.0 9.7 0.00 0.30 0.05 86 1010.7
20260901111006 18 279 0.0 8.0 0.00 0.30 0.05 86 1010.7
20260901110009 18 298 0.0 1.6 0.00 0.30 0.05 86 1010.7
20260901105005 18 288 0.0 4.8 0.00 0.30 0.05 85 1010.6
20260901104006 18 287 0.0 8.0 0.00 0.33 0.05 86 1010.5
20260901103008 18 254 0.0 4.8 0.03 0.33 0.05 87 1010.4
20260901102005 18 275 0.0 4.8 0.03 0.33 0.05 86 1010.4
20260901101006 18 227 0.0 1.6 0.03 0.33 0.05 87 1010.4
20260901100008 18 239 0.0 1.6 0.03 0.36 0.05 87 1010.3
20260901095006 18 272 0.0 0.0 0.03 0.41 0.05 87 1010.2
20260901094005 18 279 0.0 1.6 0.03 0.64 0.05 88 1010.2
20260901093009 18 223 0.0 8.0 0.00 0.64 0.05 89 1010.0
20260901092006 18 282 0.0 9.7 0.00 0.64 0.05 90 1009.9
20260901091006 17 237 1.6 9.7 0.00 0.64 0.05 91 1009.8
20260901090009 17 220 0.0 11.3 0.00 0.64 0.05 92 1009.8
20260901085006 17 287 0.0 1.6 0.00 0.64 0.05 92 1009.8
20260901084006 17 285 0.0 8.0 0.00 0.64 0.05 93 1009.8
20260901083008 17 264 0.0 11.3 0.00 0.64 0.05 93 1009.5
20260901082006 16 306 3.2 11.3 0.00 0.64 0.05 93 1009.4
20260901081006 17 247 0.0 9.7 0.00 0.64 0.05 93 1009.3
20260901080008 16 301 8.0 19.3 0.00 0.64 0.05 93 1009.3
20260901075007 16 222 0.0 9.7 0.00 0.64 0.05 94 1009.1
20260901074005 16 278 1.6 11.3 0.00 0.64 0.05 94 1008.9
20260901073008 16 308 0.0 8.0 0.00 0.66 0.05 94 1008.9
20260901072006 16 297 0.0 4.8 0.00 0.69 0.05 94 1008.8
20260901071006 16 300 0.0 12.9 0.00 0.71 0.05 94 1008.8
20260901070008 16 274 0.0 11.3 0.00 0.71 0.05 94 1008.7
20260901065006 16 247 1.6 9.7 0.00 0.71 0.05 94 1008.7
20260901064006 16 240 0.0 4.8 0.00 0.71 0.05 94 1008.6
20260901063008 16 309 0.0 4.8 0.00 0.71 0.05 94 1008.5
20260901062006 15 299 1.6 8.0 0.00 0.71 0.05 94 1008.3
20260901061006 15 302 1.6 14.5 0.00 0.71 0.05 94 1008.3
20260901060008 15 301 1.6 8.0 0.00 0.71 0.05 94 1008.3
20260901055006 15 301 3.2 11.3 0.00 0.71 0.05 94 1008.2
20260901054006 15 298 1.6 9.7 0.00 0.71 0.05 94 1008.2
20260901053009 15 301 1.6 9.7 0.00 0.71 0.05 94 1008.1
20260901052006 15 312 1.6 9.7 0.00 0.71 0.05 94 1007.9
20260901051006 15 281 0.0 4.8 0.00 0.71 0.05 94 1007.8
20260901050008 15 294 0.0 3.2 0.00 0.71 0.05 94 1007.8
20260901045006 15 292 0.0 0.0 0.00 0.71 0.05 94 1007.7
20260901044006 15 255 0.0 0.0 0.00 0.71 0.05 94 1007.7
20260901043008 15 231 0.0 1.6 0.00 0.71 0.05 94 1007.6
20260901042006 15 219 0.0 0.0 0.00 0.71 0.05 94 1007.5
20260901041007 14 228 0.0 0.0 0.00 0.71 0.05 94 1007.5
20260901040009 14 216 0.0 0.0 0.00 0.71 0.05 94 1007.5
20260901035006 14 237 0.0 0.0 0.05 0.71 0.05 94 1007.4
20260901034007 14 212 0.0 0.0 0.05 0.71 0.05 94 1007.3
20260901033009 15 210 0.0 0.0 0.05 0.71 0.05 94 1007.3
20260901032007 14 217 0.0 0.0 0.05 0.71 0.05 94 1007.2
20260901031006 14 224 0.0 0.0 0.05 0.71 0.05 94 1007.2
20260901030008 14 222 0.0 1.6 0.05 0.71 0.05 94 1007.2
20260901025006 14 222 0.0 1.6 0.00 0.66 0.00 94 1007.1
20260901024006 13 250 0.0 0.0 0.00 0.66 0.00 94 1007.1
20260901023008 13 219 0.0 3.2 0.00 0.66 0.00 94 1007.0
20260901022006 13 203 0.0 0.0 0.00 0.66 0.00 93 1007.0
20260901021006 13 206 0.0 1.6 0.00 0.66 0.00 93 1006.9
20260901020008 13 196 0.0 0.0 0.00 0.66 0.00 93 1006.9
20260901015006 13 181 0.0 0.0 0.00 0.66 0.00 93 1006.8
20260901014006 13 198 0.0 0.0 0.00 0.66 0.00 93 1006.7
20260901013009 13 191 0.0 0.0 0.00 0.66 0.00 93 1006.7
20260901012006 13 208 0.0 0.0 0.00 0.66 0.00 93 1006.7
20260901011006 13 194 0.0 0.0 0.00 0.66 0.00 93 1006.7
20260901010008 13 201 0.0 0.0 0.00 0.66 0.00 93 1006.7
20260901005006 13 198 0.0 0.0 0.00 0.66 0.00 93 1006.7
20260901004006 13 169 0.0 1.6 0.00 0.66 0.00 93 1006.7
20260901003009 13 197 0.0 0.0 0.00 0.66 0.00 93 1006.7
20260901002006 13 205 0.0 0.0 0.00 0.66 0.00 93 1006.7
20260901001006 13 214 0.0 0.0 0.00 0.66 0.00 93 1006.6
20260901000008 13 198 0.0 0.0 0.00 0.66 0.00 93 1006.6
20260831235006 14 184 0.0 0.0 0.00 0.66 0.00 93 1006.6
20260831234006 13 165 0.0 1.6 0.00 0.66 0.00 93 1006.5
20260831233008 14 221 0.0 0.0 0.00 0.66 0.00 93 1006.5
20260831232006 14 199 0.0 0.0 0.00 0.66 0.00 93 1006.5
20260831231006 14 197 0.0 0.0 0.00 0.66 0.00 93 1006.6
20260831230009 14 188 0.0 0.0 0.00 0.66 0.00 93 1006.6
20260831225006 15 165 0.0 0.0 0.00 0.66 0.00 93 1006.6
20260831224005 15 163 0.0 0.0 0.00 0.66 0.00 93 1006.6
20260831223008 15 193 0.0 1.6 0.00 0.66 0.00 93 1006.6
20260831222006 15 176 0.0 3.2 0.00 0.66 0.00 93 1006.6
20260831221010 15 184 0.0 0.0 0.00 0.66 0.00 93 1006.6
20260831220008 15 174 0.0 0.0 0.00 0.66 0.00 93 1006.6
20260831215006 15 184 0.0 0.0 0.00 0.66 0.66 93 1006.6
20260831214007 15 200 0.0 0.0 0.00 0.66 0.66 93 1006.6
20260831213009 15 209 0.0 0.0 0.00 0.66 0.66 92 1006.4
20260831212006 15 183 0.0 0.0 0.00 0.66 0.66 92 1006.3
20260831211006 15 170 0.0 0.0 0.00 0.66 0.66 92 1006.4
20260831210008 15 168 0.0 0.0 0.00 0.66 0.66 92 1006.2
20260831205005 15 171 0.0 1.6 0.00 0.66 0.66 92 1006.2
20260831204006 15 167 0.0 0.0 0.00 0.66 0.66 92 1006.1
20260831203009 15 168 0.0 0.0 0.00 0.66 0.66 92 1006.1
20260831202006 15 169 0.0 0.0 0.00 0.66 0.66 92 1006.1
20260831201005 15 171 0.0 0.0 0.00 0.66 0.66 92 1006.0
20260831200008 15 170 0.0 0.0 0.00 0.66 0.66 92 1006.0
20260831195006 15 165 0.0 0.0 0.00 0.66 0.66 92 1006.1
20260831194006 15 168 0.0 0.0 0.00 0.66 0.66 92 1006.1
20260831193010 15 164 0.0 1.6 0.00 0.66 0.66 92 1006.1
20260831192007 15 165 0.0 0.0 0.00 0.66 0.66 92 1006.0
20260831191006 15 174 0.0 0.0 0.00 0.66 0.66 92 1005.9
20260831190021 15 172 0.0 1.6 0.00 0.66 0.66 91 1005.8
20260831185006 15 176 0.0 0.0 0.00 0.66 0.66 91 1005.6
20260831184006 15 185 0.0 0.0 0.00 0.66 0.66 91 1005.6
20260831183009 16 186 0.0 0.0 0.00 0.66 0.66 91 1005.4
20260831182006 16 186 0.0 0.0 0.00 0.66 0.66 91 1005.4
20260831181006 16 184 0.0 0.0 0.00 0.66 0.66 91 1005.5
20260831180008 16 180 0.0 0.0 0.00 0.66 0.66 91 1005.6
20260831175007 16 181 0.0 0.0 0.00 0.66 0.66 91 1005.6
20260831174006 16 181 0.0 0.0 0.00 0.66 0.66 91 1005.4
20260831173008 16 176 0.0 0.0 0.00 0.66 0.66 91 1005.2
20260831172006 16 174 0.0 0.0 0.00 0.66 0.66 91 1005.2
20260831171006 16 160 0.0 0.0 0.00 0.66 0.66 90 1005.2
20260831170009 16 153 0.0 0.0 0.00 0.66 0.66 90 1005.2
20260831165006 16 153 0.0 0.0 0.00 0.66 0.66 90 1005.2
20260831164005 16 153 0.0 0.0 0.00 0.66 0.66 89 1005.4
20260831163007 16 153 0.0 0.0 0.03 0.66 0.66 89 1005.6
20260831162006 16 153 0.0 0.0 0.08 0.66 0.66 89 1005.3
20260831161006 16 151 0.0 0.0 0.15 0.66 0.66 88 1005.2
20260831160008 16 151 0.0 0.0 0.15 0.66 0.66 88 1005.1
20260831155005 16 151 0.0 0.0 0.23 0.66 0.66 87 1005.1
20260831154005 17 151 0.0 0.0 0.23 0.66 0.66 87 1005.0
20260831153008 17 144 0.0 4.8 0.23 0.64 0.64 86 1005.0
20260831152006 18 201 0.0 1.6 0.15 0.58 0.58 85 1005.4
20260831151005 18 217 0.0 4.8 0.10 0.51 0.51 83 1005.4
20260831150007 18 202 0.0 8.0 0.08 0.51 0.51 80 1005.4
20260831145006 19 237 1.6 8.0 0.00 0.43 0.43 76 1005.5
20260831144006 20 229 0.0 4.8 0.00 0.43 0.43 76 1005.2
20260831143008 20 231 0.0 8.0 0.00 0.43 0.43 77 1005.3
20260831142005 21 226 1.6 16.1 0.00 0.43 0.43 74 1005.3
20260831141005 21 209 0.0 9.7 0.00 0.46 0.43 73 1005.2
20260831140007 21 216 0.0 4.8 0.00 0.61 0.43 74 1005.1
20260831135006 21 220 1.6 11.3 0.00 0.76 0.43 75 1005.1